Flag for Luxembourg Weather past 2 weeks in Luxembourg, Luxembourg

Now
63 °F

Passing clouds.


Feels Like: 63 °F
Forecast: 61 / 75 °F
Wind: 5 mph from East

Location: Luxembourg Airport

Current Time: Jul 24, 2014 at 11:10:55 PM

Latest Report: Jul 24, 2014 at 10:20 PM


Visibility: N/A

Pressure: 29.95 "Hg

Humidity: 77%

Dew point: 55 °F

Location of LuxembourgLocation

Historic Weather in Luxembourg — Graph

°F

Luxembourg temperature yesterday

Maximum temperature yesterday: 82 °F (at 2:20 PM)
Minimum temperature yesterday: 66 °F (at 5:20 AM)
Average temperature yesterday: 75 °F

Past Weeks' High & Low Weather Summary

 TemperatureHumidityPressure
High90 °F (Jul 18, 3:50 PM)100% (Jul 9, 9:20 PM)30.21 "Hg (Jul 9, 9:20 PM)
Low54 °F (Jul 9, 9:20 PM)29% (Jul 19, 2:20 PM)29.71 "Hg (Jul 9, 11:20 PM)
Average69 °F70%29.98 "Hg
* Reported Jul 9 9:20 PM — Jul 24 9:50 PM, Luxembourg, Weather by CustomWeather, © 2014

Note: Actual official high and low records may vary slightly from our data, if they occured in-between our weather recording intervals... More about our weather records

Advertising

Luxembourg weather history for previous 24 hours

 ConditionsComfort  
Time TempWeatherWind HumidityBarometerVisibility
9:50 PM
Jul 24
63 °FPassing clouds.3 mph77%29.95 "HgN/A
9:20 PM64 °FPassing clouds.3 mph73%29.95 "HgN/A
8:50 PM64 °FPassing clouds.6 mph68%29.95 "HgN/A
8:20 PM66 °FSprinkles. Passing clouds.15 mph64%29.95 "HgN/A
7:50 PM66 °FSprinkles. Scattered clouds.15 mph68%29.95 "HgN/A
7:20 PM66 °FThunderstorms. Scattered clouds.21 mph64%29.95 "HgN/A
6:50 PM70 °FSprinkles. Scattered clouds.16 mph64%29.95 "HgN/A
6:20 PM77 °FSprinkles. Scattered clouds.10 mph42%29.92 "HgN/A
5:50 PM79 °FScattered clouds.9 mph37%29.92 "HgN/A
5:20 PM81 °FScattered clouds.9 mph32%29.92 "HgN/A
4:50 PM81 °FPassing clouds.9 mph32%29.92 "HgN/A
4:20 PM81 °FPassing clouds.8 mph32%29.92 "HgN/A
3:50 PM81 °FPassing clouds.7 mph32%29.92 "HgN/A
3:20 PM81 °FPassing clouds.7 mph34%29.95 "HgN/A
2:50 PM81 °FPassing clouds.8 mph34%29.95 "HgN/A
2:20 PM81 °FPassing clouds.8 mph34%29.95 "HgN/A
1:50 PM81 °FPassing clouds.7 mph34%29.95 "HgN/A
1:20 PM79 °FPassing clouds.8 mph37%29.95 "HgN/A
12:50 PM77 °FScattered clouds.9 mph36%29.95 "HgN/A
12:20 PM79 °FPassing clouds.9 mph39%29.95 "HgN/A
11:50 AM77 °FPassing clouds.7 mph47%29.95 "HgN/A
11:20 AM77 °FPassing clouds.8 mph44%29.95 "HgN/A
10:50 AM75 °FPassing clouds.8 mph47%29.95 "HgN/A
10:20 AM73 °FPassing clouds.9 mph53%29.95 "HgN/A
9:50 AM72 °FPassing clouds.10 mph57%29.95 "HgN/A
9:20 AM72 °FPassing clouds.10 mph61%29.95 "HgN/A
8:50 AM68 °FPassing clouds.13 mph64%29.95 "HgN/A
8:20 AM68 °FPassing clouds.13 mph64%29.95 "HgN/A
7:50 AM66 °FPassing clouds.13 mph68%29.95 "HgN/A
7:20 AM66 °FPassing clouds.13 mph68%29.95 "HgN/A
6:50 AM66 °FPassing clouds.12 mph68%29.95 "HgN/A
6:20 AM64 °FPassing clouds.12 mph73%29.95 "HgN/A
5:50 AM66 °FPassing clouds.12 mph68%29.95 "HgN/A
5:20 AM66 °FPassing clouds.12 mph68%29.95 "HgN/A
4:50 AM66 °FPassing clouds.9 mph68%29.95 "HgN/A
4:20 AM66 °FMild.10 mph68%29.95 "HgN/A
3:50 AM68 °FMild.12 mph64%29.95 "HgN/A
3:20 AM68 °FMild.12 mph69%29.98 "HgN/A
2:50 AM68 °FMild.10 mph69%29.98 "HgN/A
2:20 AM68 °FMild.10 mph69%29.98 "HgN/A
1:50 AM70 °FMild.10 mph64%29.98 "HgN/A
1:20 AM70 °FMild.12 mph64%29.98 "HgN/A
12:50 AM70 °FMild.12 mph64%29.98 "HgN/A
12:20 AM72 °FPassing clouds.12 mph61%29.98 "HgN/A
11:50 PM
Jul 23
72 °FPassing clouds.12 mph61%29.98 "HgN/A
11:20 PM72 °FPassing clouds.12 mph61%30.01 "HgN/A
Weather by CustomWeather, © 2014

See weather overviewHow to use our weather pages